Ocala, FL

4:31 PM EDT on September 28, 2016 (GMT -0400)
Ocala Regional-Taylor

Weather History for KOCF - December, 2011

Change the Weather History Date:

Saturday, December 17, 2011

  Actual Average Record
Temperature  
Mean Temperature 62 °F -  
Max Temperature 75 °F 66 °F 82 °F (2001)
Min Temperature 50 °F 43 °F 30 °F (2007)
Degree Days  
Heating Degree Days 2    
Growing Degree Days 12 (Base 50)    
Moisture  
Dew Point 53 °F    
Average Humidity 81    
Maximum Humidity 94    
Minimum Humidity 53    
Precipitation  
Precipitation 0.00 in - - ()
Sea Level Pressure  
Sea Level Pressure 30.19 in    
Wind  
Wind Speed 2 mph (NW)    
Max Wind Speed 12 mph    
Max Gust Speed -    
Visibility 7 miles    
Events Fog    
Averages and records for this station are not official NWS values.
T = Trace of Precipitation, MM = Missing Value Source: NWS Daily Summary

Daily Weather History Graph

Daily Weather History Graph

Search for Another Location

Airport or City:

Trip Planner

Search our weather history database for the weather conditions in past years. The results will help you decide how hot, cold, wet, or windy it might be!

Date:

Astronomy

Dec. 17, 2011 Rise Set
Actual Time 7:16 AM EST 5:33 PM EST
Civil Twilight 6:50 AM EST 5:59 PM EST
Nautical Twilight 6:20 AM EST 6:29 PM EST
Astronomical Twilight 5:51 AM EST 6:58 PM EST
Moon No Moon Rise 12:01 PM EST (12/17)
Length of Visible Light 11h 09m
Length of Day
10h 17m
Waning Gibbous, 54% of the Moon is Illuminated
Dec 17
Waning Gibbous
Dec 17
Last Quarter
Dec 24
New
Jan 1
First Quarter
Jan 9
Full

Hourly Weather History & Observations

Time (EST) Temp. Dew Point Humidity Pressure Visibility Wind Dir Wind Speed Gust Speed Precip Events Conditions
12:15 AM 59.0 °F 55.4 °F 88% 30.19 in 7.0 mi Calm Calm - N/A   Clear
12:35 AM 59.0 °F 55.4 °F 88% 30.18 in 2.5 mi Calm Calm - N/A   Clear
12:55 AM 57.2 °F 53.6 °F 88% 30.18 in 2.5 mi Calm Calm - N/A   Clear
1:15 AM 57.2 °F 53.6 °F 88% 30.17 in 1.0 mi Calm Calm - N/A   Clear
1:35 AM 55.4 °F 53.6 °F 94% 30.18 in 0.5 mi Calm Calm - N/A   Unknown
2:15 AM 55.4 °F 51.8 °F 88% 30.18 in 2.0 mi Calm Calm - N/A   Clear
2:35 AM 53.6 °F 51.8 °F 94% 30.18 in 1.2 mi Calm Calm - N/A   Clear
2:55 AM 53.6 °F 51.8 °F 94% 30.18 in 1.2 mi Calm Calm - N/A   Clear
3:15 AM 53.6 °F 51.8 °F 94% 30.18 in 4.0 mi Calm Calm - N/A   Clear
3:35 AM 51.8 °F 48.2 °F 88% 30.18 in 10.0 mi Calm Calm - N/A   Clear
3:55 AM 53.6 °F 51.8 °F 94% 30.18 in 5.0 mi Calm Calm - N/A   Clear
4:15 AM 51.8 °F 48.2 °F 88% 30.18 in 10.0 mi Calm Calm - N/A   Scattered Clouds
4:35 AM 51.8 °F 48.2 °F 88% 30.18 in 10.0 mi Calm Calm - N/A   Partly Cloudy
4:55 AM 51.8 °F 48.2 °F 88% 30.18 in 3.0 mi Calm Calm - N/A   Clear
5:15 AM 51.8 °F 48.2 °F 88% 30.18 in 0.2 mi South 3.5 mph - N/A   Mostly Cloudy
5:35 AM 51.8 °F 48.2 °F 88% 30.19 in 0.8 mi North - - N/A   Mostly Cloudy
5:55 AM 51.8 °F 48.2 °F 88% 30.19 in 3.0 mi Calm Calm - N/A   Partly Cloudy
6:15 AM 51.8 °F 46.4 °F 82% 30.19 in 4.0 mi Calm Calm - N/A   Clear
6:35 AM 51.8 °F 48.2 °F 88% 30.20 in 10.0 mi Calm Calm - N/A   Clear
6:50 AM 51.8 °F 48.2 °F 88% 30.21 in 0.5 mi Calm Calm - N/A Fog Fog
7:50 AM 50.0 °F 46.4 °F 87% 30.22 in 0.5 mi Calm Calm - N/A Fog Fog
8:08 AM 51.8 °F 48.2 °F 88% 30.22 in 4.0 mi Calm Calm - N/A   Haze
9:50 AM 66.2 °F 57.2 °F 73% 30.24 in 10.0 mi NW 6.9 mph - N/A   Clear
10:50 AM 69.8 °F 59.0 °F 68% 30.23 in 10.0 mi NW 4.6 mph - N/A   Clear
11:50 AM 71.6 °F 60.8 °F 69% 30.21 in 10.0 mi NW 9.2 mph - N/A   Partly Cloudy
12:50 PM 75.2 °F 59.0 °F 57% 30.18 in 10.0 mi NW 9.2 mph - N/A   Scattered Clouds
1:50 PM 75.2 °F 59.0 °F 57% 30.15 in 10.0 mi NW 11.5 mph - N/A   Scattered Clouds
2:50 PM 75.2 °F 57.2 °F 53% 30.13 in 10.0 mi NW 5.8 mph - N/A   Mostly Cloudy
3:50 PM 75.2 °F 57.2 °F 53% 30.13 in 10.0 mi WNW 5.8 mph - N/A   Scattered Clouds
4:50 PM 73.4 °F 59.0 °F 61% 30.13 in 10.0 mi NW 5.8 mph - N/A   Partly Cloudy
5:50 PM 69.8 °F 59.0 °F 68% 30.15 in 10.0 mi WNW 3.5 mph - N/A   Scattered Clouds
7:55 PM 64.4 °F 59.0 °F 83% 30.19 in 10.0 mi WNW 3.5 mph - N/A   Mostly Cloudy
8:15 PM 64.4 °F 59.0 °F 83% 30.19 in 10.0 mi West 3.5 mph - N/A   Mostly Cloudy
8:35 PM 64.4 °F 59.0 °F 83% 30.20 in 10.0 mi WNW 4.6 mph - N/A   Overcast
8:55 PM 64.4 °F 57.2 °F 77% 30.20 in 10.0 mi WNW 3.5 mph - N/A   Mostly Cloudy
9:15 PM 62.6 °F 57.2 °F 82% 30.21 in 10.0 mi NW 3.5 mph - N/A   Mostly Cloudy
9:35 PM 62.6 °F 57.2 °F 82% 30.21 in 10.0 mi NW 3.5 mph - N/A   Mostly Cloudy
9:55 PM 62.6 °F 57.2 °F 82% 30.22 in 10.0 mi NNW 4.6 mph - N/A   Mostly Cloudy
10:15 PM 60.8 °F 55.4 °F 82% 30.22 in 10.0 mi NNW 3.5 mph - N/A   Partly Cloudy
10:35 PM 60.8 °F 53.6 °F 77% 30.22 in 10.0 mi North 5.8 mph - N/A   Clear
10:55 PM 57.2 °F 51.8 °F 82% 30.23 in 10.0 mi North 8.1 mph - N/A   Clear
11:15 PM 57.2 °F 50.0 °F 77% 30.23 in 10.0 mi North 8.1 mph - N/A   Scattered Clouds
11:35 PM 55.4 °F 48.2 °F 77% 30.24 in 10.0 mi North 6.9 mph - N/A   Partly Cloudy
11:55 PM 55.4 °F 48.2 °F 77% 30.24 in 10.0 mi North 9.2 mph - N/A   Partly Cloudy